Content
SEND FEEDBACK

Daily
Averages
Monthly
Summary
Canada

YELLOWKNIFE, NORTHWEST TERRITORIES


Home > North America > Canada > Northwest Territories
Elevation: 676 feet     Latitude: 62 28N     Longitude: 114 27W

WEATHER
 
SELECT A DAY
Number of Records: 191,089;   Date Range: 1/1/95 - 8/27/14
 
SHARE

PRINT THIS DATA

[ ← Previous Day ]
WEATHER ALMANAC - APRIL 8, 2013
[ Next Day → ]
[ °C ]   °F
Weather ElementAverageHighLow
Temperature17.6 °F28.4 °F (5:00 pm)5 °F (12:00 am)
Dewpoint7.6 °F15.8 °F (9:00 pm)-1 °F (6:00 am)
Humidity64.6 %85 % (12:00 am)38 % (6:00 pm)
Barometer30.46 in30.49 in (1:00 am)30.35 in (11:00 pm)
Wind Speed11.2 mph18.4 mph (1:00 pm)
Weather ElementAverage
Visibility15 mi
Wind DirectionSSE (151.2 °)

Weather ElementTotal
Precipitation---
Heating Degree Days48.3 (Base 65)
Averaged from 26 records on April 8, 2013
WEATHER CONDITIONS BREAKOUT
WIND DIRECTION BREAKOUT
WEATHER BY HOUR - APRIL 8, 2013
[ °C ]   °F
Local TimeTemperatureDewpointHumidityBarometerVisibilityWind DirectionWind SpeedGust SpeedPrecipitationEventsConditions
12:00 AM5.0 °F1.4 °F85 %30.48 in15.0 miSSE (150°)5.8 mphClear
1:00 AM5.0 °F1.4 °F85 %30.49 in15.0 miSE (140°)6.9 mphClear
2:00 AM5.0 °F-0.4 °F78 %30.49 in15.0 miSE (130°)6.9 mphClear
3:00 AM5.0 °F-0.4 °F78 %30.49 in15.0 miSE (130°)8.1 mphClear
5:00 AM5.0 °F-0.4 °F78 %30.48 in15.0 miESE (120°)6.9 mphClear
6:00 AM5.0 °F-0.4 °F78 %30.48 in15.0 miESE (120°)5.8 mphClear
6:00 AM5.0 °F-1.0 °F67 %30.49 in15.0 miESE (120°)5.8 mph
7:00 AM5.0 °F-0.4 °F78 %30.49 in15.0 miESE (110°)6.9 mphClear
8:00 AM6.8 °F1.4 °F79 %30.49 in15.0 miESE (110°)5.8 mphClear
9:00 AM12.2 °F3.2 °F67 %30.49 in15.0 miSE (140°)6.9 mphClear
10:00 AM17.6 °F6.8 °F63 %30.49 in15.0 miSouth (170°)12.7 mphClear
11:00 AM19.4 °F8.6 °F63 %30.49 in15.0 miSouth (170°)16.1 mphClear
12:00 PM21.2 °F10.4 °F63 %30.49 in15.0 miSouth (180°)15.0 mphClear
12:00 PM21.0 °F10.0 °F49 %30.49 in15.0 miSouth (180°)13.8 mph
1:00 PM23.0 °F10.4 °F59 %30.49 in15.0 miSouth (180°)18.4 mphClear
2:00 PM24.8 °F12.2 °F59 %30.48 in15.0 miSouth (170°)17.3 mphClear
3:00 PM26.6 °F12.2 °F55 %30.48 in15.0 miSouth (180°)17.3 mphClear
4:00 PM26.6 °F14.0 °F59 %30.46 in15.0 miSouth (170°)12.7 mphClear
5:00 PM28.4 °F12.2 °F51 %30.45 in15.0 miSouth (170°)15.0 mphClear
6:00 PM28.4 °F12.2 °F51 %30.43 in15.0 miSSE (160°)16.1 mphClear
6:00 PM28.0 °F12.0 °F38 %30.43 in15.0 miSSE (160°)15.0 mph
7:00 PM28.4 °F12.2 °F51 %30.42 in15.0 miSSE (160°)10.4 mphClear
8:00 PM26.6 °F14.0 °F59 %30.40 in15.0 miSSE (160°)9.2 mphClear
9:00 PM26.6 °F15.8 °F64 %30.37 in15.0 miSSE (150°)11.5 mphPartly Cloudy
10:00 PM26.6 °F15.8 °F64 %30.36 in15.0 miSE (140°)11.5 mphPartly Cloudy
11:00 PM26.6 °F14.0 °F59 %30.35 in15.0 miSSE (160°)13.8 mphClear
Hourly data recorded from CYZF, located miles away from Yellowknife, Northwest Territories







STORIES FROM OUR PARTNERS